Location: Kalberh�ni
(46.4610°N, 7.2453°E)
Time: 09:13:14
(UTC+00:00)

Cosmos 1455 - Pass Details

Date: 30 October 2021
Orbit: 496 x 520 km, 82.5° (Epoch: 27 November)

Event Time Altitude Azimuth Distance (km) Brightness Sun altitude
Rises 03:46:05 0° 7° (N) 2,598 5.9 -25.2°
Reaches altitude 10° 03:48:57 10° 31° (NNE) 1,706 5.3 -24.7°
Maximum altitude 03:51:12 15° 68° (ENE) 1,405 5.3 -24.3°
Drops below altitude 10° 03:53:26 10° 106° (ESE) 1,697 5.7 -23.9°
Sets 03:56:16 0° 130° (SE) 2,575 6.4 -23.4°
